Location: Madrid
(40.4000°N, 3.6830°W)
Time: 13:21:40
(UTC+02:00)

ISS - Pass Details

Date: 24 May 2020
Orbit: 417 x 419 km, 51.6° (Epoch: 31 May)

Event Time Altitude Azimuth Distance (km) Brightness Sun altitude
Rises 01:30:22 0° 311° (NW) 2,368 0.8 -28.0°
Reaches altitude 10° 01:32:37 10° 322° (NW) 1,503 -0.2 -28.1°
Enters shadow 01:33:57 19° 337° (NNW) 1,057 -1.0 -28.2°
